Wind_Speed
26 25 24 23 23 22 21 20 20 19 19 18 17 17 17 16 15 14 14 15 15 14 14 14 13 14 14 14 14 14 14 15 15 16 16 17 17 17 17 17 17 17 17
28 27 26 25 24 23 23 22 21 21 20 19 18 18 18 17 16 16 16 16 16 16 16 15 15 15 15 16 16 16 16 17 17 18 18 18 18 18 18 18 18 18 18
30 29 27 27 26 25 24 23 23 22 22 22 21 20 20 19 18 17 17 17 17 18 17 17 16 17 17 17 17 18 18 18 19 19 19 19 19 20 20 20 19 19 18
31 30 29 28 27 26 25 24 24 24 24 23 22 22 22 21 20 19 19 19 18 18 18 18 18 18 18 18 19 19 19 19 20 20 20 20 21 21 21 21 20 19 19
33 32 31 29 28 27 27 26 25 24 25 25 24 24 23 23 22 21 21 21 20 20 19 18 18 19 19 20 20 20 20 21 20 20 21 22 22 22 21 21 21 20 20
35 34 33 32 30 29 28 27 27 26 25 25 25 24 24 24 23 22 21 21 21 21 21 20 20 20 20 21 21 21 21 21 21 22 22 22 22 22 21 21 20 20 20
37 36 35 34 32 32 31 29 29 28 27 26 26 25 25 25 24 23 23 22 22 22 22 22 21 21 21 22 22 22 22 22 22 23 23 23 22 22 21 21 20 20 21
39 38 38 36 34 33 33 31 30 30 29 28 28 27 26 26 26 25 25 24 24 24 24 23 22 22 22 23 23 23 23 24 23 24 23 23 22 22 22 22 22 22 22
40 40 39 38 36 35 35 34 32 32 31 30 29 28 27 26 26 26 26 26 25 25 24 24 24 24 24 24 24 24 24 25 24 24 24 24 23 23 22 22 22 22 22
43 41 40 39 38 37 36 35 35 33 32 31 30 29 29 29 28 27 27 27 26 26 26 26 26 25 25 25 25 25 25 26 25 25 25 24 24 23 22 23 23 23 24
45 44 42 41 39 38 37 36 36 34 34 33 32 31 31 30 30 28 28 28 27 27 27 27 27 27 26 26 26 26 26 26 26 25 25 25 25 24 24 24 24 24 24
46 45 44 43 42 39 37 36 37 36 35 35 34 34 33 32 32 31 30 29 29 29 29 28 28 28 27 27 27 27 27 27 27 27 26 26 26 25 25 25 26 26 26
47 46 45 44 43 42 40 39 38 37 36 36 36 35 34 34 34 33 32 31 31 31 31 30 30 29 29 29 29 29 28 28 28 28 28 27 27 27 28 28 28 28 29
49 48 47 47 46 45 44 43 40 39 38 37 36 36 36 36 35 34 33 32 32 32 32 31 31 31 31 30 30 30 30 29 28 29 29 29 29 29 29 30 30 30 31
51 51 49 49 48 47 46 45 43 41 40 39 38 38 37 36 36 36 35 34 34 33 33 32 32 32 32 32 32 32 31 30 30 30 30 30 31 31 31 32 32 32 33
52 52 50 49 48 48 47 45 45 43 42 41 41 40 39 38 37 36 36 35 35 35 34 34 34 33 33 33 33 33 33 32 32 32 32 33 33 33 34 34 34 35 34
53 52 51 50 49 49 48 47 46 45 44 43 42 42 41 41 39 38 38 37 37 36 35 35 35 34 34 35 35 35 34 35 35 34 34 35 35 35 35 36 36 36 36
54 53 52 51 50 50 49 48 47 46 45 44 44 44 43 42 41 40 39 39 38 38 37 37 36 35 36 36 37 37 37 37 37 37 37 37 37 37 38 38 38 38 39
55 53 53 52 51 50 50 49 48 47 46 45 44 44 43 43 42 41 40 40 40 39 39 39 38 38 38 38 38 39 39 39 39 39 40 40 39 39 39 39 40 40 41
55 55 54 53 52 51 51 50 50 49 48 47 46 46 45 45 44 43 42 42 41 41 41 41 40 41 41 41 40 40 41 41 41 41 42 42 41 41 41 42 42 43 43
56 55 55 54 54 53 52 52 51 50 49 49 48 48 47 46 45 45 44 44 44 44 44 43 43 43 43 43 42 42 43 43 43 43 43 43 44 44 45 44 45 45 46
57 56 56 56 55 55 54 53 52 51 50 49 48 48 48 47 46 46 47 47 46 46 45 45 44 44 44 44 44 44 44 44 44 45 45 45 45 46 47 47 47 47 47
57 57 56 56 56 55 55 54 53 52 51 50 50 49 49 49 48 48 48 48 48 48 47 46 46 46 45 46 46 46 46 46 46 46 46 46 46 46 47 48 48 48 48
56 57 56 56 56 56 56 56 55 54 53 52 52 51 51 50 50 49 49 49 48 48 48 48 47 47 47 48 48 48 48 48 48 48 48 48 48 48 49 49 49 50 50
55 56 57 56 56 56 56 56 56 55 54 53 53 52 52 52 51 51 50 49 49 48 48 49 49 48 48 49 49 50 49 49 49 49 49 50 50 50 50 51 51 51 51
54 54 55 56 55 55 55 54 55 55 54 54 54 53 52 52 51 51 51 50 49 49 49 49 49 49 49 50 50 51 51 51 51 51 51 52 52 52 51 51 51 51 52
Wind_Direction
234 233 235 238 238 239 241 241 241 243 245 248 249 249 249 252 255 259 263 265 267 271 274 275 277 280 284 288 291 295 298 301 303 305 307 308 309 308 308 309 310 310 310
235 235 235 238 239 240 241 243 244 244 246 248 251 252 251 253 256 260 263 266 268 270 273 276 278 280 282 285 288 291 294 297 299 300 302 304 305 307 307 307 308 307 307
236 235 236 238 239 240 241 244 244 246 248 249 251 253 254 256 259 262 265 268 270 271 271 274 277 278 280 282 285 289 292 295 297 298 299 301 302 303 304 305 305 305 304
236 237 237 238 239 239 241 244 246 249 250 249 251 253 254 257 260 262 265 269 272 274 274 275 276 278 280 282 285 288 291 293 295 296 298 299 300 301 301 302 302 303 302
236 237 237 238 238 240 243 245 247 250 251 251 252 254 256 258 260 263 266 269 271 273 274 275 276 278 280 282 285 288 290 292 293 295 297 298 299 301 301 300 299 300 301
236 238 239 239 240 240 242 243 246 250 251 252 254 255 257 259 260 263 266 268 270 271 272 275 276 278 280 282 285 287 289 292 293 294 296 297 298 299 301 300 299 298 301
236 237 239 239 241 241 243 244 246 248 250 253 255 255 257 259 261 262 264 267 268 269 272 275 277 279 280 282 284 285 287 289 292 295 296 297 298 298 297 297 298 299 300
236 238 238 239 241 243 244 245 246 248 249 252 254 256 257 258 261 263 264 266 268 270 272 274 277 278 280 282 284 285 286 289 291 293 295 296 297 296 296 296 296 297 298
237 237 238 238 240 243 244 245 246 247 250 252 253 255 256 258 260 263 264 266 268 270 272 273 274 277 279 281 282 283 285 288 289 291 293 293 296 297 296 296 297 296 299
237 238 237 239 241 242 243 245 247 247 250 252 254 255 256 259 262 263 264 265 266 268 271 273 275 276 278 280 281 282 283 285 287 289 291 292 294 296 295 295 296 297 298
238 239 238 239 240 241 242 244 246 248 250 252 254 255 256 259 260 263 264 264 266 268 270 273 274 276 277 279 281 282 282 283 284 287 289 290 291 292 294 294 295 298 298
238 239 240 241 241 241 242 244 246 247 249 252 253 255 257 259 260 262 264 264 265 267 269 271 272 274 276 278 279 280 281 281 283 285 287 289 290 290 291 292 295 296 297
237 239 240 240 241 241 242 244 246 247 250 251 252 254 257 260 261 262 262 264 265 266 268 270 272 274 276 277 278 279 280 280 281 283 285 287 289 289 289 291 293 294 295
237 238 239 240 241 243 244 245 247 248 251 252 253 255 257 259 261 262 263 265 266 266 267 269 271 273 275 276 277 277 278 279 280 281 283 285 287 288 288 289 291 292 293
237 238 239 240 242 243 244 246 247 249 250 252 254 255 257 258 261 263 264 266 266 266 265 267 269 271 273 274 275 276 277 278 280 280 282 284 285 287 288 289 290 292 292
236 238 238 240 241 243 245 246 247 249 251 253 254 256 258 259 260 262 263 264 265 265 265 266 268 270 272 273 274 275 276 277 279 280 281 283 285 286 288 289 289 290 291
236 237 238 239 241 243 244 245 247 249 251 253 254 256 258 260 261 263 263 263 264 264 265 267 268 270 272 273 274 274 275 276 278 280 281 282 283 285 286 287 289 290 290
237 238 238 239 240 242 243 245 246 248 251 253 255 256 258 259 261 262 262 263 264 264 264 265 267 269 271 272 272 273 274 276 277 278 280 282 282 283 285 286 288 289 290
236 238 239 240 240 241 243 245 246 248 250 252 253 255 258 259 260 262 262 263 264 265 265 266 267 268 270 271 272 273 273 274 276 277 279 280 281 283 284 286 287 289 290
237 238 239 240 241 242 243 245 246 248 250 252 253 255 257 259 260 262 262 263 264 265 267 268 268 269 270 271 272 273 273 274 276 277 278 279 280 283 284 286 288 289 290
238 239 240 241 242 244 245 246 248 249 250 252 253 254 256 259 261 262 263 263 264 266 267 268 269 269 270 271 272 273 274 275 275 277 278 279 281 283 284 286 287 289 290
238 239 241 242 243 244 246 247 248 249 250 251 253 254 256 258 260 261 262 263 264 266 267 268 269 270 270 270 271 273 274 275 275 276 278 279 281 283 284 286 287 289 290
239 240 241 242 243 244 245 247 248 249 250 251 252 254 256 258 259 261 262 263 264 265 266 267 268 269 270 270 271 272 273 274 275 276 277 279 281 283 285 286 287 289 290
239 240 241 242 243 244 245 246 247 249 250 251 253 254 256 258 259 260 261 262 263 265 266 267 267 268 269 270 272 272 273 273 275 276 277 279 281 283 284 286 287 288 289
240 240 241 242 243 244 246 246 247 249 250 251 253 254 256 257 258 260 261 262 263 264 265 266 267 268 269 271 272 273 273 274 275 276 278 279 281 282 284 285 287 288 289
240 241 241 242 243 244 246 247 248 249 250 251 253 254 256 257 258 258 260 262 263 263 264 265 267 269 270 271 272 272 273 273 274 276 277 279 280 281 283 285 286 287 288
Height
5838 5840 5843 5845 5847 5849 5851 5853 5855 5857 5858 5860 5861 5862 5863 5864 5865 5866 5867 5867 5868 5868 5868 5868 5868 5868 5868 5868 5867 5867 5866 5865 5864 5863 5862 5861 5859 5858 5856 5855 5853 5852 5850
5833 5836 5839 5841 5843 5845 5847 5849 5851 5853 5855 5856 5858 5859 5860 5861 5862 5863 5864 5864 5865 5865 5865 5865 5865 5865 5865 5864 5864 5864 5863 5862 5861 5860 5859 5858 5856 5855 5853 5851 5850 5848 5847
5828 5831 5834 5836 5839 5841 5843 5845 5847 5849 5851 5852 5854 5855 5856 5858 5859 5860 5860 5861 5861 5861 5861 5861 5862 5862 5861 5861 5861 5860 5859 5859 5858 5857 5855 5854 5853 5851 5850 5848 5846 5845 5843
5822 5825 5828 5831 5834 5836 5839 5841 5843 5845 5846 5848 5850 5851 5852 5854 5855 5856 5857 5857 5857 5858 5858 5858 5858 5858 5858 5857 5857 5856 5856 5855 5854 5853 5852 5850 5849 5847 5846 5844 5843 5841 5840
5816 5819 5823 5826 5829 5831 5834 5836 5838 5840 5842 5844 5845 5847 5848 5849 5850 5851 5852 5853 5854 5854 5854 5854 5854 5854 5854 5854 5853 5852 5852 5851 5850 5849 5847 5846 5844 5843 5841 5840 5838 5837 5836
5809 5813 5816 5820 5823 5826 5828 5831 5833 5835 5837 5839 5840 5842 5843 5844 5846 5847 5848 5848 5849 5850 5850 5850 5850 5850 5850 5850 5849 5848 5847 5847 5845 5844 5843 5841 5840 5838 5837 5836 5834 5833 5832
5802 5806 5810 5813 5816 5820 5822 5825 5827 5829 5831 5833 5835 5837 5838 5840 5841 5842 5843 5843 5844 5845 5845 5846 5846 5846 5845 5845 5845 5844 5843 5842 5841 5840 5838 5837 5835 5834 5832 5831 5830 5829 5828
5794 5798 5802 5806 5809 5813 5816 5819 5821 5824 5825 5828 5830 5831 5833 5835 5835 5837 5838 5838 5839 5840 5840 5841 5841 5841 5841 5840 5840 5839 5839 5837 5836 5835 5834 5832 5831 5829 5828 5826 5825 5824 5823
5786 5790 5794 5798 5802 5806 5809 5812 5815 5817 5819 5821 5823 5826 5827 5829 5830 5831 5832 5833 5833 5834 5835 5835 5836 5836 5836 5835 5835 5834 5833 5832 5831 5830 5829 5827 5826 5824 5823 5822 5821 5820 5818
5777 5781 5785 5790 5794 5798 5802 5804 5807 5810 5812 5815 5817 5819 5821 5823 5824 5825 5826 5827 5827 5828 5829 5829 5830 5830 5830 5830 5829 5829 5828 5827 5826 5825 5824 5822 5821 5820 5818 5817 5816 5815 5813
5768 5773 5777 5782 5786 5790 5794 5797 5800 5803 5805 5807 5810 5812 5814 5815 5817 5819 5820 5821 5821 5822 5823 5823 5823 5824 5824 5824 5823 5823 5822 5821 5820 5819 5818 5817 5816 5815 5813 5812 5811 5810 5808
5759 5764 5768 5773 5777 5782 5785 5789 5792 5795 5798 5800 5802 5804 5806 5808 5810 5811 5813 5814 5814 5815 5816 5817 5817 5817 5817 5817 5817 5816 5816 5815 5814 5814 5813 5812 5810 5809 5808 5807 5806 5804 5802
5749 5754 5759 5764 5768 5773 5777 5780 5784 5787 5790 5792 5795 5797 5799 5800 5802 5803 5805 5806 5807 5808 5809 5809 5810 5810 5811 5811 5810 5810 5809 5809 5808 5807 5806 5805 5804 5803 5802 5801 5800 5798 5796
5739 5744 5749 5754 5759 5763 5767 5771 5775 5778 5781 5784 5786 5788 5790 5792 5794 5795 5797 5798 5799 5800 5801 5802 5802 5803 5803 5803 5803 5803 5802 5802 5801 5800 5800 5799 5798 5797 5795 5794 5793 5791 5789
5728 5733 5739 5744 5748 5753 5757 5761 5765 5769 5772 5775 5778 5780 5782 5784 5785 5786 5788 5789 5791 5792 5793 5794 5795 5795 5795 5796 5795 5795 5795 5795 5794 5793 5793 5792 5791 5790 5788 5787 5785 5784 5782
5717 5723 5728 5733 5738 5743 5747 5751 5756 5759 5763 5766 5768 5771 5773 5775 5776 5778 5779 5781 5782 5783 5785 5786 5786 5787 5787 5787 5787 5787 5787 5787 5786 5786 5785 5784 5783 5782 5781 5779 5778 5776 5774
5706 5712 5717 5722 5727 5732 5737 5741 5746 5749 5753 5756 5759 5761 5763 5765 5767 5769 5770 5771 5773 5774 5776 5777 5777 5778 5778 5779 5779 5779 5778 5778 5778 5777 5777 5776 5775 5773 5772 5771 5769 5767 5765
5695 5701 5706 5711 5716 5721 5726 5731 5735 5739 5743 5746 5749 5751 5753 5755 5758 5760 5761 5762 5763 5765 5766 5767 5768 5768 5769 5770 5770 5770 5770 5769 5769 5768 5767 5767 5765 5764 5763 5761 5760 5758 5756
5683 5689 5695 5700 5705 5710 5715 5720 5724 5728 5732 5735 5738 5741 5743 5745 5748 5749 5751 5753 5754 5755 5756 5757 5758 5759 5759 5760 5760 5760 5760 5760 5760 5759 5758 5757 5756 5755 5753 5752 5750 5748 5746
5671 5677 5683 5689 5694 5699 5704 5708 5712 5717 5721 5724 5727 5730 5733 5735 5737 5739 5741 5742 5744 5745 5746 5747 5747 5748 5749 5749 5750 5750 5750 5750 5749 5749 5748 5747 5746 5744 5743 5741 5740 5738 5736
5659 5665 5671 5676 5682 5687 5692 5696 5701 5705 5709 5713 5716 5719 5722 5724 5726 5728 5730 5731 5733 5734 5735 5736 5737 5737 5738 5738 5739 5739 5739 5739 5739 5738 5737 5736 5735 5734 5732 5731 5729 5727 5724
5646 5652 5658 5664 5669 5675 5680 5684 5689 5693 5697 5701 5704 5707 5710 5713 5715 5717 5718 5720 5721 5722 5724 5725 5726 5726 5726 5727 5727 5727 5728 5728 5728 5728 5726 5725 5724 5723 5721 5719 5717 5715 5712
5633 5639 5646 5651 5657 5662 5667 5672 5676 5681 5685 5689 5692 5695 5698 5701 5703 5705 5706 5707 5709 5710 5712 5713 5714 5714 5715 5715 5716 5716 5716 5716 5716 5715 5714 5714 5712 5711 5709 5707 5705 5702 5700
5620 5627 5633 5638 5644 5649 5654 5659 5663 5668 5672 5676 5680 5683 5685 5688 5690 5692 5694 5695 5697 5698 5699 5700 5702 5702 5702 5702 5703 5703 5703 5703 5703 5702 5701 5701 5700 5699 5697 5694 5692 5689 5687
5607 5613 5619 5625 5631 5636 5641 5646 5650 5655 5659 5663 5666 5669 5672 5675 5677 5679 5681 5683 5684 5685 5686 5687 5688 5688 5689 5689 5689 5690 5690 5690 5690 5689 5688 5688 5687 5685 5684 5682 5679 5676 5673
5594 5600 5606 5612 5617 5623 5627 5632 5637 5641 5646 5650 5653 5656 5659 5661 5663 5665 5667 5669 5671 5672 5673 5674 5675 5675 5676 5676 5676 5676 5676 5676 5676 5676 5675 5673 5673 5671 5671 5669 5666 5663 5660